Terug naar catalogus

SHIYAN 27F

ActiefWetenschapSSO
NORAD 63604·PAYLOAD·🇨🇳 China

Gelanceerd Apr 18, 2025 vanaf Taiyuan Satellite Launch Center

Loading…

Volgende Passages (komende 24 uur)

TLE

VersSource: Space-Track

Epoch: Sep 14, 2026, 23:18 UTC

1 63604U 25078F   26257.97120672 -.00000010  00000-0  48154-4 0  9995
2 63604  99.6945 263.8509 0000937  91.7781 268.3464 13.57248901 69714

Volg SHIYAN 27F in realtime met AllMySat

Download on the App Store